CW9861 Weather Reports


Display with metric or nautical units.
time (UTC)temp
F
wind
direction
speed
MPH
gust
MPH
rain 1hr
in
rain 24hr
in
rain mn
in
humidity
%
barometer
mb
20260502220002 52 271 5.0 12.0 0.00 0.00 0.00 44 1014.0
20260502215459 52 313 3.0 11.0 0.00 0.00 0.00 44 1014.1
20260502214959 52 240 3.0 8.0 0.00 0.00 0.00 44 1014.1
20260502214458 52 214 3.0 6.0 0.00 0.00 0.00 46 1014.1
20260502213958 51 271 2.0 9.0 0.00 0.00 0.00 47 1014.2
20260502213459 51 284 2.0 9.0 0.00 0.00 0.00 44 1014.1
20260502212959 53 271 3.0 12.0 0.00 0.00 0.00 42 1014.0
20260502212458 53 320 4.0 12.0 0.00 0.00 0.00 42 1014.0
20260502211959 53 246 4.0 13.0 0.00 0.00 0.00 49 1014.1
20260502211459 51 313 4.0 14.0 0.00 0.00 0.00 43 1014.1
20260502210959 52 218 4.0 11.0 0.00 0.00 0.00 44 1014.1
20260502210458 51 242 5.0 12.0 0.00 0.00 0.00 47 1014.3
20260502210001 53 234 4.0 12.0 0.00 0.00 0.00 46 1014.3
20260502205459 53 238 4.0 11.0 0.00 0.00 0.00 46 1014.4
20260502204959 52 251 4.0 11.0 0.00 0.00 0.00 47 1014.4
20260502204458 52 322 4.0 12.0 0.00 0.00 0.00 46 1014.6
20260502203959 53 280 5.0 12.0 0.00 0.00 0.00 45 1014.6
20260502203459 53 236 3.0 9.0 0.00 0.00 0.00 43 1014.6
20260502202959 52 174 5.0 16.0 0.00 0.00 0.00 46 1014.6
20260502202459 53 211 3.0 10.0 0.00 0.00 0.00 43 1014.5
20260502201959 53 305 3.0 10.0 0.00 0.00 0.00 47 1014.6
20260502201500 50 299 3.0 9.0 0.00 0.00 0.00 47 1014.7
20260502200959 50 266 3.0 10.0 0.00 0.00 0.00 46 1014.8
20260502200459 51 291 2.0 10.0 0.00 0.00 0.00 45 1014.9
20260502195959 52 298 4.0 10.0 0.00 0.00 0.00 44 1014.9
20260502195459 51 332 3.0 9.0 0.00 0.00 0.00 49 1014.9
20260502194958 51 318 3.0 12.0 0.00 0.00 0.00 45 1015.0
20260502194459 53 236 5.0 12.0 0.00 0.00 0.00 47 1015.0
20260502193959 53 224 4.0 12.0 0.00 0.00 0.00 49 1015.2
20260502193459 51 236 5.0 12.0 0.00 0.00 0.00 48 1015.2
20260502192959 52 227 7.0 11.0 0.00 0.00 0.00 46 1015.2
20260502192459 49 245 3.0 9.0 0.00 0.00 0.00 51 1015.2
20260502191959 49 218 4.0 9.0 0.00 0.00 0.00 49 1015.3
20260502191459 50 280 3.0 9.0 0.00 0.00 0.00 50 1015.5
20260502190959 48 315 3.0 8.0 0.00 0.00 0.00 49 1015.4
20260502190459 48 232 3.0 8.0 0.00 0.00 0.00 50 1015.5
20260502190001 49 261 2.0 12.0 0.00 0.00 0.00 50 1015.6
20260502185459 51 276 4.0 12.0 0.00 0.00 0.00 48 1015.5
20260502184959 49 307 3.0 8.0 0.00 0.00 0.00 49 1015.7
20260502184459 48 276 2.0 10.0 0.00 0.00 0.00 51 1015.7
20260502183959 48 257 3.0 10.0 0.00 0.00 0.00 49 1015.7
20260502183459 49 276 3.0 8.0 0.00 0.00 0.00 47 1015.7
20260502182959 50 220 4.0 11.0 0.00 0.00 0.00 48 1015.8
20260502182459 48 330 2.0 11.0 0.00 0.00 0.00 47 1015.8
20260502181959 48 249 2.0 5.0 0.00 0.00 0.00 49 1015.9
20260502181458 48 228 2.0 8.0 0.00 0.00 0.00 49 1015.9
20260502180959 50 205 2.0 8.0 0.00 0.00 0.00 43 1015.9
20260502180459 48 329 3.0 8.0 0.00 0.00 0.00 47 1016.1
20260502163459 45 345 4.0 9.0 0.00 0.00 0.00 54 1017.0
20260502162958 45 271 3.0 11.0 0.00 0.00 0.00 53 1016.9
20260502162458 45 329 4.0 11.0 0.00 0.00 0.00 53 1016.9
20260502161959 46 271 4.0 9.0 0.00 0.00 0.00 51 1017.0
20260502161459 47 307 3.0 11.0 0.00 0.00 0.00 52 1016.9
20260502160959 45 301 5.0 11.0 0.00 0.00 0.00 52 1017.0
20260502160458 46 281 3.0 10.0 0.00 0.00 0.00 52 1017.0
20260502150458 42 307 4.0 10.0 0.00 0.00 0.00 57 1017.1
20260502130500 40 354 2.0 5.0 0.00 0.00 0.00 73 1017.4
20260502123459 33 291 2.0 4.0 0.00 0.00 0.00 89 1017.5
20260502122959 33 314 1.0 5.0 0.00 0.00 0.00 89 1017.6
20260502122458 32 320 2.0 5.0 0.00 0.00 0.00 89 1017.6
20260502121959 32 225 2.0 4.0 0.00 0.00 0.00 89 1017.6
20260502121458 31 326 2.0 4.0 0.00 0.00 0.00 89 1017.5
20260502120958 31 326 1.0 3.0 0.00 0.00 0.00 89 1017.5
20260502120459 30 286 1.0 2.0 0.00 0.00 0.00 89 1017.5
20260502115459 29 276 1.0 3.0 0.00 0.00 0.00 88 1017.5
20260502114958 29 276 1.0 3.0 0.00 0.00 0.00 88 1017.5
20260502114500 29 315 1.0 2.0 0.00 0.00 0.00 88 1017.5
20260502113958 28 311 0.0 1.0 0.00 0.00 0.00 88 1017.5
20260502113458 28 311 0.0 1.0 0.00 0.00 0.00 87 1017.4
20260502112959 28 311 0.0 1.0 0.00 0.00 0.00 87 1017.4
20260502112458 28 311 0.0 0.0 0.00 0.00 0.00 87 1017.3
20260502112000 28 311 0.0 0.0 0.00 0.00 0.00 87 1017.3
20260502111458 28 311 0.0 0.0 0.00 0.00 0.00 87 1017.3
20260502110958 28 311 0.0 0.0 0.00 0.00 0.00 87 1017.3
20260502110500 28 311 0.0 0.0 0.00 0.00 0.00 86 1017.3
20260502105959 28 311 0.0 0.0 0.00 0.00 0.00 86 1017.1
20260502105459 27 311 0.0 0.0 0.00 0.00 0.00 86 1017.1
20260502104959 27 311 0.0 0.0 0.00 0.00 0.00 85 1017.1
20260502104458 27 311 0.0 0.0 0.00 0.00 0.00 85 1017.1
20260502103958 28 311 0.0 0.0 0.00 0.00 0.00 85 1017.1
20260502103458 28 311 0.0 0.0 0.00 0.00 0.00 85 1017.1
20260502103000 28 311 0.0 0.0 0.00 0.00 0.00 85 1017.1
20260502102458 28 311 0.0 0.0 0.00 0.00 0.00 85 1017.1
20260502102000 28 311 0.0 0.0 0.00 0.00 0.00 85 1017.2
20260502091458 29 311 0.0 0.0 0.00 0.00 0.00 81 1016.8
20260502090959 29 311 0.0 0.0 0.00 0.00 0.00 81 1016.8
20260502090459 30 311 0.0 0.0 0.00 0.00 0.00 81 1016.7
20260502071457 33 311 0.0 0.0 0.00 0.00 0.00 77 1016.6
20260502070956 33 311 0.0 0.0 0.00 0.00 0.00 77 1016.7
20260502070456 33 311 0.0 0.0 0.00 0.00 0.00 77 1016.5
20260502065956 33 311 0.0 0.0 0.00 0.00 0.00 76 1016.5
20260502065457 33 311 0.0 0.0 0.00 0.00 0.00 76 1016.5
20260502064956 33 311 0.0 1.0 0.00 0.00 0.00 76 1016.5
20260502064456 33 311 0.0 1.0 0.00 0.00 0.00 76 1016.6
20260502063956 34 311 0.0 2.0 0.00 0.00 0.00 76 1016.7
20260502063457 34 311 0.0 2.0 0.00 0.00 0.00 76 1016.7
20260502062956 34 311 0.0 0.0 0.00 0.00 0.00 75 1016.7
20260502062456 34 311 0.0 0.0 0.00 0.00 0.00 75 1016.8
20260502061956 34 311 0.0 0.0 0.00 0.00 0.00 75 1016.7
20260502061457 34 311 0.0 0.0 0.00 0.00 0.00 74 1016.7
20260502060957 34 311 0.0 0.0 0.00 0.00 0.00 74 1016.6
20260502060456 34 311 0.0 0.0 0.00 0.00 0.00 74 1016.6
20260502055959 34 311 0.0 0.0 0.00 0.00 0.00 73 1016.8
20260502055457 34 311 0.0 0.0 0.00 0.00 0.00 73 1016.8
20260502054958 34 311 0.0 0.0 0.00 0.00 0.00 73 1016.8
20260502054458 34 311 0.0 0.0 0.00 0.00 0.00 73 1016.6
20260502053957 34 311 0.0 0.0 0.00 0.00 0.00 72 1016.6
20260502053458 34 311 0.0 0.0 0.00 0.00 0.00 72 1016.5
20260502052957 34 311 0.0 1.0 0.00 0.00 0.00 72 1016.6
20260502052459 35 311 0.0 2.0 0.00 0.00 0.00 72 1016.5
20260502051958 35 310 0.0 2.0 0.00 0.00 0.00 72 1016.5
20260502051458 35 286 0.0 1.0 0.00 0.00 0.00 71 1016.5
20260502050958 35 286 0.0 1.0 0.00 0.00 0.00 70 1016.5
20260502050457 35 286 0.0 1.0 0.00 0.00 0.00 70 1016.4
20260502045959 36 286 0.0 1.0 0.00 0.00 0.00 70 1016.5
20260502045456 36 286 0.0 1.0 0.00 0.00 0.00 70 1016.4
20260502044957 36 286 0.0 2.0 0.00 0.00 0.00 70 1016.5
20260502044457 36 290 0.0 2.0 0.00 0.00 0.00 70 1016.4
20260502043957 36 288 0.0 3.0 0.00 0.00 0.00 69 1016.4
20260502043456 36 310 1.0 3.0 0.00 0.00 0.00 69 1016.4
20260502042958 36 333 0.0 3.0 0.00 0.00 0.00 69 1016.3
20260502042457 37 332 1.0 4.0 0.00 0.00 0.00 69 1016.3
20260502041957 37 320 1.0 2.0 0.00 0.00 0.00 69 1016.2
20260502041456 37 312 0.0 2.0 0.00 0.00 0.00 68 1016.3
20260502040956 37 312 0.0 2.0 0.00 0.00 0.00 68 1016.3
20260502040457 37 318 0.0 2.0 0.00 0.00 0.00 67 1016.3
20260502035957 37 297 1.0 2.0 0.00 0.00 0.00 67 1016.4
20260502035457 37 309 0.0 2.0 0.00 0.00 0.00 67 1016.3
20260502034958 38 310 0.0 3.0 0.00 0.00 0.00 66 1016.2
20260502034457 38 310 1.0 3.0 0.00 0.00 0.00 66 1016.2
20260502033957 38 297 0.0 3.0 0.00 0.00 0.00 66 1016.3
20260502033457 38 306 1.0 3.0 0.00 0.00 0.00 66 1016.2
20260502032957 38 315 1.0 4.0 0.00 0.00 0.00 65 1016.3
20260502032457 38 299 1.0 4.0 0.00 0.00 0.00 65 1016.3
20260502031957 38 297 0.0 2.0 0.00 0.00 0.00 65 1016.2
20260502031457 38 284 1.0 5.0 0.00 0.00 0.00 64 1016.3
20260502030957 38 329 2.0 3.0 0.00 0.00 0.00 64 1016.3
20260502030457 38 289 1.0 3.0 0.00 0.00 0.00 64 1016.3
20260502025959 38 286 1.0 4.0 0.00 0.00 0.00 64 1016.2
20260502025459 38 318 2.0 4.0 0.00 0.00 0.00 63 1016.2
20260502024958 38 316 1.0 3.0 0.00 0.00 0.00 63 1016.0
20260502024459 39 291 2.0 4.0 0.00 0.00 0.00 62 1016.2
20260502020458 40 266 1.0 5.0 0.00 0.00 0.00 59 1016.0
20260502015959 40 262 3.0 5.0 0.00 0.00 0.00 59 1015.9
20260502015456 40 310 3.0 6.0 0.00 0.00 0.00 58 1015.8
20260502014957 40 336 3.0 7.0 0.00 0.00 0.00 58 1015.8
20260502014458 40 323 1.0 9.0 0.00 0.00 0.00 57 1015.7
20260502013957 41 311 2.0 9.0 0.00 0.00 0.00 57 1015.7
20260502013457 41 313 4.0 9.0 0.00 0.00 0.00 57 1015.7
20260502012957 41 2 3.0 8.0 0.00 0.00 0.00 58 1015.7
20260502012458 41 322 2.0 7.0 0.00 0.00 0.00 59 1015.6
20260502011957 41 325 1.0 2.0 0.00 0.00 0.00 60 1015.5
20260502011457 41 321 0.0 3.0 0.00 0.00 0.00 60 1015.4
20260502010957 41 321 0.0 3.0 0.00 0.00 0.00 59 1015.4
20260502010457 41 322 1.0 2.0 0.00 0.00 0.00 59 1015.5
20260502010000 41 322 0.0 3.0 0.00 0.00 0.00 59 1015.4
20260502005458 42 322 0.0 3.0 0.00 0.00 0.00 59 1015.3
20260502004959 42 360 1.0 6.0 0.00 0.00 0.00 58 1015.3
20260502004458 42 327 1.0 6.0 0.00 0.00 0.00 57 1015.2
20260502003958 42 320 1.0 5.0 0.00 0.00 0.00 57 1015.1
20260502003458 42 317 1.0 5.0 0.00 0.00 0.00 57 1015.1
20260502002959 42 313 3.0 5.0 0.00 0.00 0.00 56 1015.0
20260502002459 42 314 3.0 8.0 0.00 0.00 0.00 56 1015.0
20260502001958 42 328 2.0 8.0 0.00 0.00 0.00 56 1014.9
20260502001458 42 311 2.0 9.0 0.00 0.00 0.00 55 1014.9
20260502000958 42 337 4.0 12.0 0.00 0.00 0.00 55 1014.9
20260502000458 43 316 3.0 12.0 0.00 0.00 0.00 55 1014.9
20260501235958 43 256 3.0 7.0 0.00 0.00 0.00 54 1014.8
20260501235457 43 301 3.0 8.0 0.00 0.00 0.00 53 1014.7
20260501234957 43 280 3.0 6.0 0.00 0.00 0.00 54 1014.6
20260501234457 43 261 1.0 5.0 0.00 0.00 0.00 54 1014.6
20260501233957 43 314 3.0 6.0 0.00 0.00 0.00 53 1014.6
20260501233457 43 324 3.0 7.0 0.00 0.00 0.00 52 1014.6
20260501232957 43 304 3.0 9.0 0.00 0.00 0.00 53 1014.6
20260501232456 44 22 4.0 9.0 0.00 0.00 0.00 54 1014.5
20260501231957 44 252 4.0 9.0 0.00 0.00 0.00 54 1014.5
20260501231458 44 280 4.0 10.0 0.00 0.00 0.00 54 1014.5
20260501230957 44 340 4.0 11.0 0.00 0.00 0.00 53 1014.4
20260501230458 45 271 6.0 11.0 0.00 0.00 0.00 53 1014.4
20260501225959 45 240 3.0 7.0 0.00 0.00 0.00 53 1014.3
20260501225458 45 311 2.0 7.0 0.00 0.00 0.00 52 1014.2
20260501224959 45 290 3.0 10.0 0.00 0.00 0.00 51 1014.2
20260501224458 46 344 4.0 11.0 0.00 0.00 0.00 51 1014.2
20260501223959 46 249 3.0 8.0 0.00 0.00 0.00 52 1014.3
20260501223458 45 259 3.0 6.0 0.00 0.00 0.00 50 1014.2
20260501222959 46 313 2.0 7.0 0.00 0.00 0.00 53 1014.2
20260501222458 45 315 2.0 9.0 0.00 0.00 0.00 53 1014.2